DW9161 Weather Reports


time (UTC)temp
C
wind
direction
speed
KPH
gust
KPH
rain 1hr
cm
rain 24hr
cm
rain mn
cm
humidity
%
barometer
mb
20260504235046 21 359 9.7 25.7 0.00 0.00 0.00 33 1004.9
20260504234545 21 349 12.9 27.4 0.00 0.00 0.00 32 1004.9
20260504234042 21 337 14.5 27.4 0.00 0.00 0.00 31 1004.8
20260504233539 21 330 8.0 27.4 0.00 0.00 0.00 33 1004.8
20260504233037 21 8 11.3 27.4 0.00 0.00 0.00 30 1004.6
20260504232534 22 349 11.3 24.1 0.00 0.00 0.00 30 1004.6
20260504232032 22 307 9.7 24.1 0.00 0.00 0.00 30 1004.4
20260504231530 23 319 4.8 24.1 0.00 0.00 0.00 30 1004.4
20260504231047 23 37 8.0 24.1 0.00 0.00 0.00 30 1004.3
20260504230556 23 314 9.7 32.2 0.00 0.00 0.00 29 1004.2
20260504230036 23 339 12.9 32.2 0.00 0.00 0.00 29 1003.9
20260504225532 23 327 8.0 29.0 0.00 0.00 0.00 29 1003.8
20260504225031 23 1 8.0 25.7 0.00 0.00 0.00 30 1003.7
20260504224548 23 328 12.9 25.7 0.00 0.00 0.00 29 1003.7
20260504224046 24 3 9.7 19.3 0.00 0.00 0.00 30 1003.6
20260504223543 24 356 11.3 29.0 0.00 0.00 0.00 29 1003.4
20260504223041 24 359 14.5 29.0 0.00 0.00 0.00 29 1003.4
20260504222539 25 359 9.7 27.4 0.00 0.00 0.00 30 1003.3
20260504222055 25 326 12.9 27.4 0.00 0.00 0.00 29 1003.1
20260504221533 25 352 9.7 24.1 0.00 0.00 0.00 30 1003.0
20260504221050 25 5 14.5 24.1 0.00 0.00 0.00 29 1002.8
20260504220558 25 359 9.7 22.5 0.00 0.00 0.00 29 1002.7
20260504220039 25 354 9.7 24.1 0.00 0.00 0.00 30 1002.7
20260504215556 25 337 8.0 24.1 0.00 0.00 0.00 32 1002.7
20260504215052 25 314 9.7 16.1 0.00 0.00 0.00 30 1002.6
20260504214549 25 290 6.4 25.7 0.00 0.00 0.00 33 1002.7
20260504214044 25 307 12.9 25.7 0.00 0.00 0.00 31 1002.7
20260504213542 25 311 9.7 20.9 0.00 0.00 0.00 32 1002.6
20260504213038 25 321 9.7 16.1 0.00 0.00 0.00 31 1002.5
20260504212540 25 346 8.0 22.5 0.00 0.00 0.00 33 1002.6
20260504212101 25 298 9.7 24.1 0.00 0.00 0.00 31 1002.5
20260504211535 26 1 8.0 24.1 0.00 0.00 0.00 33 1002.5
20260504211054 26 334 9.7 24.1 0.00 0.00 0.00 34 1002.5
20260504210621 26 332 11.3 24.1 0.00 0.00 0.00 32 1002.5
20260504210040 26 356 11.3 24.1 0.00 0.00 0.00 32 1002.5
20260504205537 26 352 9.7 19.3 0.00 0.00 0.00 32 1002.4
20260504205035 26 360 9.7 22.5 0.00 0.00 0.00 33 1002.4
20260504204530 26 318 9.7 22.5 0.00 0.00 0.00 34 1002.4
20260504204049 26 340 11.3 17.7 0.00 0.00 0.00 33 1002.3
20260504203547 26 324 11.3 17.7 0.00 0.00 0.00 34 1002.3
20260504203044 27 333 6.4 17.7 0.00 0.00 0.00 33 1002.3
20260504202608 26 334 11.3 17.7 0.00 0.00 0.00 36 1002.3
20260504202044 26 349 11.3 19.3 0.00 0.00 0.00 34 1002.3
20260504201541 27 317 11.3 17.7 0.00 0.00 0.00 33 1002.3
20260504201039 27 293 4.8 17.7 0.00 0.00 0.00 35 1002.1
20260504200627 27 296 6.4 22.5 0.00 0.00 0.00 33 1002.0
20260504200045 26 304 9.7 22.5 0.00 0.00 0.00 32 1002.1
20260504195035 26 274 9.7 22.5 0.00 0.00 0.00 32 1002.1
20260504194533 27 314 9.7 20.9 0.00 0.00 0.00 32 1002.2
20260504194034 27 344 9.7 25.7 0.00 0.00 0.00 31 1002.1
20260504193533 27 360 14.5 25.7 0.00 0.00 0.00 30 1002.1
20260504193030 27 282 9.7 24.1 0.00 0.00 0.00 31 1001.9
20260504192549 27 322 9.7 24.1 0.00 0.00 0.00 31 1001.9
20260504192109 27 329 8.0 22.5 0.00 0.00 0.00 30 1001.9
20260504191546 27 342 11.3 22.5 0.00 0.00 0.00 29 1001.8
20260504191044 27 304 14.5 20.9 0.00 0.00 0.00 28 1001.8
20260504190552 27 289 8.0 20.9 0.00 0.00 0.00 28 1001.8
20260504190050 27 286 11.3 20.9 0.00 0.00 0.00 27 1001.8
20260504185546 27 311 11.3 19.3 0.00 0.00 0.00 30 1001.7
20260504185043 27 339 8.0 19.3 0.00 0.00 0.00 31 1001.7
20260504184542 27 340 8.0 22.5 0.00 0.00 0.00 30 1001.7
20260504184101 27 297 8.0 22.5 0.00 0.00 0.00 31 1001.7
20260504183537 27 264 6.4 16.1 0.00 0.00 0.00 29 1001.6
20260504183034 27 266 8.0 17.7 0.00 0.00 0.00 30 1001.7
20260504182532 27 297 8.0 17.7 0.00 0.00 0.00 29 1001.9
20260504182030 27 309 8.0 20.9 0.00 0.00 0.00 30 1001.9
20260504181533 27 325 8.0 20.9 0.00 0.00 0.00 30 1001.8
20260504181050 26 301 6.4 17.7 0.00 0.00 0.00 31 1001.9
20260504180559 27 327 8.0 22.5 0.00 0.00 0.00 28 1002.1
20260504180038 27 335 9.7 22.5 0.00 0.00 0.00 30 1002.1
20260504175536 26 327 11.3 22.5 0.00 0.00 0.00 30 1002.0
20260504175034 26 274 9.7 20.9 0.00 0.00 0.00 32 1002.1
20260504174532 26 279 9.7 17.7 0.00 0.00 0.00 30 1002.1
20260504174030 26 282 8.0 17.7 0.00 0.00 0.00 33 1002.2
20260504173610 26 264 6.4 19.3 0.00 0.00 0.00 33 1002.2
20260504173108 26 296 6.4 19.3 0.00 0.00 0.00 35 1002.3
20260504172545 25 269 8.0 16.1 0.00 0.00 0.00 33 1002.3
20260504172041 25 326 6.4 22.5 0.00 0.00 0.00 35 1002.3
20260504171539 25 277 3.2 22.5 0.00 0.00 0.00 36 1002.3
20260504171034 25 302 9.7 17.7 0.00 0.00 0.00 35 1002.3
20260504170605 25 268 8.0 17.7 0.00 0.00 0.00 36 1002.4
20260504151052 20 270 3.2 9.7 0.00 0.00 0.00 47 1002.5
20260504150620 19 270 3.2 11.3 0.00 0.00 0.00 48 1002.5
20260504141038 17 318 6.4 11.3 0.00 0.00 0.00 52 1003.0
20260504140606 17 304 6.4 11.3 0.00 0.00 0.00 52 1002.9
20260504130610 13 195 0.0 3.2 0.00 0.00 0.00 65 1002.6
20260504110553 12 195 1.6 3.2 0.00 0.00 0.00 64 1002.4
20260504100600 12 195 0.0 1.6 0.00 0.00 0.00 60 1002.6
20260504081555 13 195 0.0 3.2 0.00 0.00 0.00 56 1004.2
20260504081031 13 195 1.6 3.2 0.00 0.00 0.00 56 1004.3
20260504080601 13 195 1.6 3.2 0.00 0.00 0.00 56 1004.2
20260504050559 16 195 0.0 3.2 0.00 0.00 0.00 48 1006.8
20260504045555 16 195 0.0 3.2 0.00 0.00 0.00 49 1006.9
20260504045033 16 195 1.6 3.2 0.00 0.00 0.00 49 1006.9
20260504044551 16 195 1.6 3.2 0.00 0.00 0.00 49 1006.9
20260504044108 16 195 1.6 3.2 0.00 0.00 0.00 49 1007.0
20260504043543 16 195 1.6 3.2 0.00 0.00 0.00 50 1007.2
20260504043037 16 195 1.6 3.2 0.00 0.00 0.00 49 1007.3
20260504042534 16 195 1.6 3.2 0.00 0.00 0.00 50 1007.3
20260504042050 16 195 1.6 3.2 0.00 0.00 0.00 50 1007.3
20260504041546 16 195 1.6 3.2 0.00 0.00 0.00 47 1007.3
20260504041044 16 195 0.0 1.6 0.00 0.00 0.00 48 1007.4
20260504040553 17 195 0.0 1.6 0.00 0.00 0.00 47 1007.4
20260504040051 17 195 0.0 1.6 0.00 0.00 0.00 48 1007.4
20260504035546 17 195 0.0 0.0 0.00 0.00 0.00 47 1007.5
20260504035042 17 195 0.0 0.0 0.00 0.00 0.00 47 1007.5
20260504034538 17 195 0.0 8.0 0.00 0.00 0.00 46 1007.6
20260504034039 18 195 1.6 8.0 0.00 0.00 0.00 45 1007.6
20260504033554 18 195 0.0 0.0 0.00 0.00 0.00 43 1007.6
20260504033049 18 195 0.0 3.2 0.00 0.00 0.00 44 1007.7
20260504032544 18 195 0.0 3.2 0.00 0.00 0.00 43 1007.7
20260504032100 18 195 1.6 3.2 0.00 0.00 0.00 42 1007.7
20260504031535 18 195 0.0 1.6 0.00 0.00 0.00 42 1007.8
20260504031051 18 195 0.0 1.6 0.00 0.00 0.00 41 1007.8
20260504030619 18 195 0.0 1.6 0.00 0.00 0.00 42 1007.8
20260504030034 18 195 0.0 1.6 0.00 0.00 0.00 42 1007.9
20260504025550 18 195 0.0 1.6 0.00 0.00 0.00 43 1007.9
20260504025046 18 195 0.0 1.6 0.00 0.00 0.00 43 1007.9
20260504024540 18 195 1.6 1.6 0.00 0.00 0.00 44 1007.9
20260504024036 18 195 1.6 1.6 0.00 0.00 0.00 43 1007.9
20260504023533 18 195 0.0 1.6 0.00 0.00 0.00 43 1008.0
20260504023048 18 195 0.0 0.0 0.00 0.00 0.00 43 1008.0
20260504022545 18 195 0.0 1.6 0.00 0.00 0.00 43 1008.1
20260504022042 18 195 1.6 1.6 0.00 0.00 0.00 43 1008.0
20260504021538 18 195 0.0 3.2 0.00 0.00 0.00 43 1008.1
20260504021036 18 195 1.6 3.2 0.00 0.00 0.00 43 1008.0
20260504020623 18 195 0.0 1.6 0.00 0.00 0.00 41 1008.2
20260504020041 18 195 0.0 0.0 0.00 0.00 0.00 41 1008.3
20260504015556 19 195 0.0 0.0 0.00 0.00 0.00 41 1008.2
20260504015033 19 195 0.0 1.6 0.00 0.00 0.00 41 1008.3
20260504014533 20 195 0.0 1.6 0.00 0.00 0.00 40 1008.3
20260504014050 20 195 0.0 1.6 0.00 0.00 0.00 39 1008.2
20260504013607 20 195 0.0 3.2 0.00 0.00 0.00 38 1008.2
20260504013043 20 195 1.6 3.2 0.00 0.00 0.00 38 1008.2
20260504012049 21 195 1.6 4.8 0.00 0.00 0.00 37 1008.3
20260504011544 21 195 1.6 4.8 0.00 0.00 0.00 37 1008.3
20260504011059 21 195 3.2 4.8 0.00 0.00 0.00 37 1008.3
20260504010605 21 195 1.6 8.0 0.00 0.00 0.00 37 1008.3
20260504010043 21 195 4.8 9.7 0.00 0.00 0.00 36 1008.4
20260504005538 21 195 4.8 9.7 0.00 0.00 0.00 36 1008.5
20260504005035 21 193 4.8 11.3 0.00 0.00 0.00 35 1008.4
20260504004549 21 193 4.8 9.7 0.00 0.00 0.00 35 1008.5
20260504004043 22 207 4.8 8.0 0.00 0.00 0.00 36 1008.5
20260504003539 22 210 4.8 6.4 0.00 0.00 0.00 35 1008.5
20260504003033 22 209 4.8 6.4 0.00 0.00 0.00 35 1008.5
20260504002549 22 209 3.2 8.0 0.00 0.00 0.00 35 1008.5
20260504002043 22 208 4.8 11.3 0.00 0.00 0.00 35 1008.6
20260504001538 22 196 4.8 11.3 0.00 0.00 0.00 34 1008.6
20260504001055 22 212 4.8 9.7 0.00 0.00 0.00 35 1008.7
20260504000603 22 205 6.4 9.7 0.00 0.00 0.00 34 1008.7
20260504000044 22 194 4.8 9.7 0.00 0.00 0.00 35 1008.7
20260503235540 23 198 4.8 11.3 0.00 0.00 0.00 34 1008.7